Time,TemperatureF,DewpointF,PressureIn,WindDirection,WindDirectionDegrees,WindSpeedMPH,WindSpeedGustMPH,Humidity,HourlyPrecipIn,Conditions,Clouds,dailyrainin,SoftwareType,DateUTC
2013-04-04 19:10:00,58.7,57.9,29.79,ENE,73,2.0,2.0,97,0.00,,,0.96,Wunderground v.1.15,2013-04-04 23:10:00,
2013-04-04 19:20:00,59.0,58.2,29.78,ENE,57,5.0,5.0,97,0.00,,,0.97,Wunderground v.1.15,2013-04-04 23:20:00,
2013-04-04 19:25:00,59.1,58.2,29.78,East,86,5.0,5.0,97,0.00,,,0.97,Wunderground v.1.15,2013-04-04 23:25:00,
2013-04-04 19:30:00,59.2,58.3,29.78,ESE,123,2.0,2.0,97,0.00,,,0.97,Wunderground v.1.15,2013-04-04 23:30:00,
2013-04-04 19:40:00,58.8,57.7,29.79,West,275,2.0,3.0,96,0.00,,,0.97,Wunderground v.1.15,2013-04-04 23:40:00,
2013-04-04 19:45:00,58.3,57.2,29.79,West,275,2.0,3.0,96,0.00,,,0.97,Wunderground v.1.15,2013-04-04 23:45:00,
2013-04-04 19:55:00,57.7,56.6,29.78,West,275,1.0,1.0,96,0.00,,,0.97,Wunderground v.1.15,2013-04-04 23:55:00,
2013-04-04 20:05:00,57.0,55.6,29.78,WNW,286,1.0,1.0,95,0.00,,,0.97,Wunderground v.1.15,2013-04-05 00:05:00,
2013-04-04 20:15:00,56.4,55.0,29.78,WNW,286,0.0,0.0,95,0.00,,,0.97,Wunderground v.1.15,2013-04-05 00:15:00,
2013-04-04 20:25:00,55.7,54.3,29.78,WNW,285,0.0,0.0,95,0.00,,,0.97,Wunderground v.1.15,2013-04-05 00:25:00,
2013-04-04 20:30:00,55.4,54.0,29.77,WNW,285,0.0,0.0,95,0.00,,,0.97,Wunderground v.1.15,2013-04-05 00:30:00,
2013-04-04 20:35:00,55.0,53.6,29.78,WNW,285,1.0,1.0,95,0.00,,,0.97,Wunderground v.1.15,2013-04-05 00:35:00,
2013-04-04 20:45:00,54.6,53.5,29.78,West,269,1.0,1.0,96,0.00,,,0.97,Wunderground v.1.15,2013-04-05 00:45:00,
2013-04-04 20:50:00,54.5,53.1,29.78,WSW,254,0.0,5.0,95,0.00,,,0.97,Wunderground v.1.15,2013-04-05 00:50:00,
2013-04-04 20:55:00,54.1,53.0,29.79,West,277,1.0,5.0,96,0.00,,,0.97,Wunderground v.1.15,2013-04-05 00:55:00,
2013-04-04 21:00:00,54.1,53.0,29.79,WNW,290,1.0,2.0,96,0.00,,,0.97,Wunderground v.1.15,2013-04-05 01:00:00,
2013-04-04 21:10:00,53.9,52.8,29.80,WSW,256,2.0,5.0,96,0.00,,,0.97,Wunderground v.1.15,2013-04-05 01:10:00,
2013-04-04 21:20:00,53.6,52.5,29.81,WSW,256,2.0,3.0,96,0.00,,,0.97,Wunderground v.1.15,2013-04-05 01:20:00,
2013-04-04 21:30:00,53.3,52.2,29.80,WNW,302,1.0,1.0,96,0.00,,,0.97,Wunderground v.1.15,2013-04-05 01:30:00,
2013-04-04 21:40:00,52.7,51.6,29.80,WSW,258,1.0,1.0,96,0.00,,,0.97,Wunderground v.1.15,2013-04-05 01:40:00,
2013-04-04 21:45:00,52.6,51.5,29.80,West,281,2.0,2.0,96,0.00,,,0.97,Wunderground v.1.15,2013-04-05 01:45:00,
2013-04-04 22:00:00,52.4,51.3,29.80,West,270,0.0,2.0,96,0.00,,,0.97,Wunderground v.1.15,2013-04-05 02:00:00,
2013-04-04 22:10:00,52.1,51.0,29.81,West,277,1.0,1.0,96,0.00,,,0.97,Wunderground v.1.15,2013-04-05 02:10:00,
2013-04-04 22:20:00,51.7,50.6,29.80,WNW,286,2.0,2.0,96,0.00,,,0.97,Wunderground v.1.15,2013-04-05 02:20:00,
2013-04-04 22:30:00,51.2,50.1,29.81,WNW,292,3.0,5.0,96,0.00,,,0.97,Wunderground v.1.15,2013-04-05 02:30:00,
2013-04-04 22:35:00,50.9,49.8,29.81,WNW,284,3.0,5.0,96,0.00,,,0.97,Wunderground v.1.15,2013-04-05 02:35:00,
2013-04-04 22:45:00,50.8,49.7,29.81,WNW,292,1.0,2.0,96,0.00,,,0.97,Wunderground v.1.15,2013-04-05 02:45:00,
2013-04-04 22:55:00,50.5,49.4,29.81,NW,323,2.0,2.0,96,0.00,,,0.97,Wunderground v.1.15,2013-04-05 02:55:00,
2013-04-04 23:10:00,49.8,48.7,29.80,West,269,3.0,3.0,96,0.00,,,0.97,Wunderground v.1.15,2013-04-05 03:10:00,
2013-04-04 23:20:00,49.2,48.1,29.80,West,278,3.0,3.0,96,0.00,,,0.97,Wunderground v.1.15,2013-04-05 03:20:00,
2013-04-04 23:30:00,48.8,47.7,29.81,West,266,3.0,3.0,96,0.00,,,0.97,Wunderground v.1.15,2013-04-05 03:30:00,
2013-04-04 23:40:00,48.8,48.0,29.82,WNW,289,2.0,4.0,97,0.00,,,0.97,Wunderground v.1.15,2013-04-05 03:40:00,
2013-04-04 23:50:00,48.6,47.5,29.82,West,276,3.0,3.0,96,0.00,,,0.97,Wunderground v.1.15,2013-04-05 03:50:00,